Regional Weather Roundup
Issued by NWS

Home | Current Version | Previous Version | Graphics & Text | Print | Product List | Glossary On
Versions: 1 2 3 4 5 6 7 8 9 10 11 12 13 14 15 16 17 18 19 20 21 22 23 24 25 26 27 28 29 30 31 32 33 34 35 36 37 38 39 40 41 42 43 44 45 46 47 48 49 50
000
ASUS45 KTFX 200419
RWRMT
MONTANA HOURLY WEATHER ROUNDUP
NATIONAL WEATHER SERVICE GREAT FALLS MT
1019 PM MDT FRI SEP 19 2014

NOTE: "FAIR" INDICATES FEW OR NO CLOUDS BELOW 12000 FEET WITH NO
SIGNIFICANT WEATHER AND/OR OBSTRUCTIONS TO VISIBILITY.

* THESE STATIONS ARE NOT UNDER NWS QUALITY CONTROL. THEY DO NOT
   REPORT WEATHER SUCH AS PRECIPITATION OR FOG.

MTZ001>007-043-200500-
WEST OF THE DIVIDE
CITY           SKY/WX    TMP DP  RH WIND       PRES   REMARKS
KALISPELL      PTCLDY    54  45  72 VRB6      30.07R
MISSOULA       PTCLDY    57  45  64 N6        30.13R
BUTTE          PTCLDY    54  39  57 NW5       30.19R
MULLAN PASS    MOCLDY    48  43  83 VRB7      30.22R
* ESSEX        N/A       54  47  77 E1         N/A
* LINCOLN      N/A       56  42  60 S4G10      N/A
* LOOKOUT PASS N/A       53  45  74 N2         N/A
* POLSON       N/A       56  44  64 SE1        N/A
* RONAN APT    PTCLDY    52  43  72 N/A        N/A
* SEELEY LAKE  N/A       49  42  77 NE3        N/A
* THOMP F APT  MOCLDY    56  38  51 NE3G11     N/A
$$

MTZ008-052>055-200500-
SOUTHWEST MONTANA
CITY           SKY/WX    TMP DP  RH WIND       PRES   REMARKS
BOZEMAN        PTCLDY    54  43  67 SE5       30.11R
DILLON         PTCLDY    55  39  55 E3        30.13S
W YELLOWSTONE  MOCLDY    55  43  64 SW8       30.22R
* THREE FORKS  PTCLDY    55  55 100 N/A        N/A
* BOULDER HILL N/A       52  36  55 S2         N/A
* MONIDA PASS  N/A       52  40  64 W1         N/A
* RAYNOLDS PAS N/A       54   3  12 VRB6       N/A
* WHITEHALL    N/A       58  42  55 W4G10      N/A
* WISE RIVER   N/A       51  37  59 W7         N/A
$$

MTZ009>010-012-014-046-048-049-054-200500-
EAST SLOPES AND CENTRAL MONTANA
CITY           SKY/WX    TMP DP  RH WIND       PRES   REMARKS
CUT BANK       CLEAR     57  41  55 W13       29.98R
GREAT FALLS    CLEAR     55  39  55 SW8       30.02R
HELENA         CLEAR     63  41  45 VRB3      30.09R
MALMSTROM AFB  CLEAR     63  41  45 W12       30.03R
* CONRAD       CLEAR     59  46  62 N/A        N/A
* EAST GLACIER N/A       58  40  51 W19G28     N/A
* MONARCH      N/A       56  37  49 W15        N/A
* PENDROY      N/A       51  40  66 W4         N/A
* SAINT MARY   N/A       59  41  51 S8G17      N/A
* SWEET GRASS  N/A       59  39  48 W17G24     N/A
* WHITE SULPH  N/A       52  38  59 N2         N/A
$$

MTZ011-013-016-021-035-040-045-047-050-051-200500-
NORTH CENTRAL MONTANA
CITY           SKY/WX    TMP DP  RH WIND       PRES   REMARKS
HAVRE          CLEAR     57  45  64 SW10      29.90R
LEWISTOWN      CLOUDY    63  41  45 N8        30.03R
* CHINOOK      CLEAR     61  46  58 W5        29.89R
* FORT BENTON  CLEAR     61  43  52 SW10      29.98R
* CHESTER      N/A       61  41  48 W8G14      N/A
* DENTON       N/A       54  42  64 SW9        N/A
* GEYSER       N/A       51  42  71 W12        N/A
* JUDITH GAP   N/A       54  42  64 N4         N/A
* LOMA         N/A       63  43  48 W6         N/A
$$

MTZ017>020-022>027-061-062-200500-
NORTHEAST MONTANA
CITY           SKY/WX    TMP DP  RH WIND       PRES   REMARKS
GLASGOW        PTCLDY    61  52  72 CALM      29.85R
GLENDIVE       CLEAR     55  46  72 W9        29.90R
JORDAN         PTCLDY    55  48  77 W6        29.91R
SIDNEY         PTCLDY    55  48  77 CALM      29.86R
WOLF POINT     CLEAR     57  52  83 CALM      29.84R
* BEAVER HILL  N/A       60  47  62 SW7        N/A
* CIRCLE       N/A       60  50  70 W3         N/A
* LINDSAY DVD  N/A       57  47  69 NW4        N/A
* NAVAJO       N/A       58  50  75 NW11       N/A
$$

MTZ028>042-056>058-200500-
SOUTHCENTRAL AND SOUTHEAST MONTANA
CITY           SKY/WX    TMP DP  RH WIND       PRES   REMARKS
BAKER          CLEAR     55  45  69 W10       29.92R
BILLINGS       FAIR      61  45  56 NW7       30.00R
LIVINGSTON     CLEAR     63  41  45 W12       30.06F
MILES CITY     MOCLDY    66  45  47 NW9       29.91R
* LAUREL APT   CLEAR     57  43  60 W5         N/A
* ROUNDUP APT  CLEAR     61  43  52 W7         N/A
* ALZADA       N/A       62  48  60 NW2        N/A
* LAME DEER    N/A       62  45  54 W5         N/A
* REED POINT   N/A       61  40  46 N1         N/A
* ROSCOE HILL  N/A       59  36  42 SW3        N/A
$$

REGIONAL REPORTS...DAKOTAS
CITY           SKY/WX    TMP DP  RH WIND       PRES   REMARKS
WILLISTON      MOCLDY    55  48  77 W7        29.83R
DICKINSON      CLEAR     55  48  77 W7        29.85R
BEACH          N/A       55  46  72 SW8       29.89R
CROSBY         CLEAR     50  50 100 W6        29.82R
TIOGA          CLEAR     50  50 100 CALM      29.85R
WATFORD CITY   CLEAR     55  50  83 CALM      29.82R
BISMARCK       PTCLDY    64  54  70 NW6       29.81R
GRAND FORKS    MOCLDY    63  54  73 N14       29.66R
FARGO          MOCLDY    70  55  59 NW13      29.64R
BUFFALO SD     PTCLDY    55  46  72 W10       29.87R
RAPID CITY     PTCLDY    66  48  52 NW8       29.96R
$$

REGIONAL REPORTS...WYOMING/IDAHO/WASHINGTON
CITY           SKY/WX    TMP DP  RH WIND       PRES   REMARKS
GILLETTE       MOCLDY    55  46  72 S3        30.04R
SHERIDAN       PTCLDY    57  48  72 SE6       30.04R
CODY           PTCLDY   N/A N/A N/A N/A        N/A
YELLOWSTONE LA CLEAR     43  39  86 CALM      30.30R
SALMON         PTCLDY    64  43  47 S3        30.10R
MULLAN PASS    MOCLDY    48  43  83 VRB7      30.22S
SAND POINT     MOCLDY    55  52  90 CALM      30.06R
SPOKANE        PTCLDY    68  46  45 S8        30.06S
$$

REGIONAL REPORTS...ALBERTA
CITY           SKY/WX    TMP DP  RH WIND       PRES   REMARKS
CALGARY        FAIR      61  34  36 W12G22    29.92R
LETHBRIDGE     PTCLDY    64  41  43 W25G32    29.91R
MEDICINE HAT   MOCLDY    66  45  47 W21       29.82R
EDMONTON       N/A       57  41  55 NW9G18    29.85R
WATERTON GATE  N/A       61  39  44 W21G32     N/A
CARDSTON       N/A       61  41  48 W20G31     N/A
MILK RIVER     N/A       57  41  55 W14        N/A
$$

REGIONAL REPORTS...SASKATCHEWAN
CITY           SKY/WX    TMP DP  RH WIND       PRES   REMARKS
SWIFT CURRENT  PTCLDY    57  46  67 SW7       29.82R
REGINA         FAIR      52  48  86 SW8       29.77R
VAL MARIE      N/A       50  45  83 W1         N/A
ASSINIBOIA     N/A       52  46  80 SW6        N/A
CORONACH       N/A       48  46  93 W3         N/A

$$




USA.gov is the U.S. government's official web portal to all federal, state and local government web resources and services.